When you browse on this site, cookies collect data to enhance your experience and personalize the content and advertising you see.
Visit our Privacy Policy to learn more. By continuing to use the site, you agree to this use of cookies and data.
  • In Czech Republic
  • List of Countries
  • For 7 days
  • Water Temperature
  • Weather Map
  • Weather Widgets
  • user-avatar
    Login

    Hourly Weather Berat

    Today, 13 December, Friday

    Time Temperature Precipitation Wind Pressure Humidity
    00:00 +9°C° 0 mm 2 mps 735 mmHg 84%
    01:00 +8°C° 0 mm 2 mps 734 mmHg 84%
    02:00 +8°C° 0 mm 2 mps 734 mmHg 84%
    03:00 +8°C° 0 mm 2 mps 734 mmHg 84%
    04:00 +8°C° 0 mm 2 mps 734 mmHg 84%
    05:00 +8°C° 0.2 mm 2 mps 734 mmHg 85%
    06:00 +8°C° 0.2 mm 2 mps 734 mmHg 85%
    07:00 +9°C° 0.2 mm 2 mps 734 mmHg 85%
    08:00 +9°C° 0.2 mm 2 mps 734 mmHg 83%
    09:00 +10°C° 0.2 mm 2 mps 734 mmHg 81%
    10:00 +10°C° 0.2 mm 2 mps 734 mmHg 78%
    11:00 +12°C° 0.1 mm 2 mps 734 mmHg 74%
    12:00 +13°C° 0.1 mm 2 mps 733 mmHg 69%
    13:00 +13°C° 0.1 mm 2 mps 733 mmHg 64%
    14:00 +13°C° 0.1 mm 2 mps 732 mmHg 68%
    15:00 +12°C° 0.1 mm 2 mps 732 mmHg 72%
    16:00 +10°C° 0.1 mm 2 mps 731 mmHg 75%
    17:00 +10°C° 0 mm 3 mps 731 mmHg 77%
    18:00 +9°C° 0 mm 3 mps 731 mmHg 78%
    19:00 +8°C° 0 mm 4 mps 730 mmHg 80%
    20:00 +8°C° 0.1 mm 4 mps 729 mmHg 80%
    21:00 +8°C° 0.1 mm 4 mps 728 mmHg 81%
    22:00 +8°C° 0.1 mm 4 mps 727 mmHg 82%
    23:00 +8°C° 2.3 mm 4 mps 726 mmHg 85%

    Tomorrow, 14 December, Saturday

    Time Temperature Precipitation Wind Pressure Humidity
    00:00 +8°C° 2.3 mm 4 mps 725 mmHg 87%
    01:00 +10°C° 2.3 mm 3 mps 724 mmHg 90%
    02:00 +9°C° 2.1 mm 3 mps 724 mmHg 90%
    03:00 +9°C° 2.1 mm 3 mps 723 mmHg 90%
    04:00 +9°C° 2.1 mm 2 mps 723 mmHg 90%
    05:00 +8°C° 2.4 mm 2 mps 724 mmHg 91%
    06:00 +8°C° 2.4 mm 2 mps 724 mmHg 91%
    07:00 +8°C° 2.4 mm 2 mps 725 mmHg 92%
    08:00 +8°C° 0.8 mm 2 mps 726 mmHg 89%
    09:00 +9°C° 0.8 mm 2 mps 726 mmHg 87%
    10:00 +10°C° 0.8 mm 1 mps 727 mmHg 84%
    11:00 +10°C° 0 mm 2 mps 727 mmHg 83%
    12:00 +10°C° 0 mm 2 mps 728 mmHg 81%
    13:00 +11°C° 0 mm 3 mps 729 mmHg 79%
    14:00 +12°C° 0 mm 2 mps 730 mmHg 81%
    15:00 +12°C° 0 mm 2 mps 731 mmHg 83%
    16:00 +10°C° 0 mm 2 mps 732 mmHg 85%
    17:00 +11°C° 0 mm 1 mps 734 mmHg 85%
    18:00 +11°C° 0 mm 1 mps 735 mmHg 85%
    19:00 +10°C° 0 mm 1 mps 736 mmHg 85%
    20:00 +10°C° 0 mm 1 mps 737 mmHg 85%
    21:00 +10°C° 0 mm 1 mps 738 mmHg 84%
    22:00 +10°C° 0 mm 1 mps 739 mmHg 84%
    23:00 +10°C° 0 mm 1 mps 740 mmHg 84%

    Day after tomorrow, 15 December, Sunday

    Time Temperature Precipitation Wind Pressure Humidity
    00:00 +10°C° 0 mm 1 mps 741 mmHg 84%
    01:00 +10°C° 0 mm 1 mps 741 mmHg 83%
    02:00 +10°C° 0 mm 1 mps 742 mmHg 83%
    03:00 +9°C° 0 mm 2 mps 742 mmHg 83%
    04:00 +8°C° 0 mm 2 mps 743 mmHg 83%
    05:00 +8°C° 0 mm 2 mps 743 mmHg 82%
    06:00 +8°C° 0 mm 2 mps 744 mmHg 82%
    07:00 +8°C° 0 mm 2 mps 744 mmHg 82%
    08:00 +10°C° 0 mm 2 mps 745 mmHg 79%
    09:00 +12°C° 0 mm 2 mps 746 mmHg 76%
    10:00 +14°C° 0 mm 2 mps 746 mmHg 73%
    11:00 +15°C° 0 mm 2 mps 746 mmHg 71%
    12:00 +16°C° 0 mm 1 mps 746 mmHg 69%
    13:00 +16°C° 0 mm 1 mps 746 mmHg 67%
    14:00 +15°C° 0 mm 1 mps 747 mmHg 71%
    15:00 +15°C° 0 mm 1 mps 747 mmHg 74%
    16:00 +14°C° 0 mm 1 mps 747 mmHg 78%
    17:00 +13°C° 0 mm 1 mps 747 mmHg 77%
    18:00 +13°C° 0 mm 1 mps 748 mmHg 76%
    19:00 +12°C° 0 mm 2 mps 748 mmHg 76%
    20:00 +12°C° 0 mm 2 mps 749 mmHg 75%
    21:00 +12°C° 0 mm 2 mps 749 mmHg 75%
    22:00 +12°C° 0 mm 2 mps 749 mmHg 74%
    23:00 +12°C° 0 mm 2 mps 750 mmHg 74%

    16 December, Monday

    Time Temperature Precipitation Wind Pressure Humidity
    00:00 +12°C° 0 mm 2 mps 750 mmHg 74%
    01:00 +10°C° 0 mm 2 mps 750 mmHg 75%
    02:00 +10°C° 0 mm 2 mps 750 mmHg 75%
    03:00 +10°C° 0 mm 2 mps 750 mmHg 76%
    04:00 +10°C° 0 mm 2 mps 750 mmHg 77%
    05:00 +10°C° 0 mm 2 mps 750 mmHg 77%
    06:00 +10°C° 0 mm 2 mps 751 mmHg 78%
    07:00 +10°C° 0 mm 2 mps 751 mmHg 78%
    08:00 +12°C° 0 mm 1 mps 751 mmHg 75%
    09:00 +14°C° 0 mm 1 mps 751 mmHg 73%
    10:00 +16°C° 0 mm 1 mps 752 mmHg 70%
    11:00 +16°C° 0 mm 1 mps 751 mmHg 68%
    12:00 +18°C° 0 mm 1 mps 751 mmHg 67%
    13:00 +19°C° 0 mm 1 mps 751 mmHg 65%
    14:00 +18°C° 0 mm 1 mps 751 mmHg 70%
    15:00 +15°C° 0 mm 1 mps 751 mmHg 74%
    16:00 +14°C° 0 mm 1 mps 751 mmHg 79%
    17:00 +14°C° 0 mm 1 mps 751 mmHg 80%
    18:00 +13°C° 0 mm 1 mps 751 mmHg 82%
    19:00 +13°C° 0 mm 1 mps 751 mmHg 83%
    20:00 +13°C° 0 mm 1 mps 751 mmHg 83%
    21:00 +12°C° 0 mm 1 mps 751 mmHg 83%
    22:00 +12°C° 0 mm 1 mps 751 mmHg 84%
    23:00 +12°C° 0 mm 1 mps 751 mmHg 83%

    17 December, Tuesday

    Time Temperature Precipitation Wind Pressure Humidity
    00:00 +12°C° 0 mm 1 mps 751 mmHg 83%
    01:00 +12°C° 0 mm 1 mps 751 mmHg 83%
    02:00 +11°C° 0 mm 1 mps 751 mmHg 82%
    03:00 +10°C° 0 mm 2 mps 751 mmHg 81%
    04:00 +10°C° 0 mm 2 mps 751 mmHg 81%
    05:00 +10°C° 0 mm 2 mps 751 mmHg 79%
    06:00 +10°C° 0 mm 2 mps 751 mmHg 78%
    07:00 +10°C° 0 mm 2 mps 751 mmHg 77%
    08:00 +13°C° 0 mm 2 mps 751 mmHg 73%
    09:00 +14°C° 0 mm 1 mps 752 mmHg 69%
    10:00 +16°C° 0 mm 1 mps 752 mmHg 65%
    11:00 +18°C° 0 mm 1 mps 751 mmHg 63%
    12:00 +18°C° 0 mm 1 mps 751 mmHg 61%
    13:00 +19°C° 0 mm 1 mps 751 mmHg 59%
    14:00 +18°C° 0 mm 1 mps 751 mmHg 64%
    15:00 +16°C° 0 mm 1 mps 751 mmHg 69%
    16:00 +14°C° 0 mm 0 mps 751 mmHg 74%
    17:00 +14°C° 0 mm 1 mps 751 mmHg 75%
    18:00 +14°C° 0 mm 1 mps 751 mmHg 77%
    19:00 +13°C° 0 mm 1 mps 751 mmHg 78%
    20:00 +13°C° 0 mm 1 mps 751 mmHg 78%
    21:00 +13°C° 0 mm 1 mps 751 mmHg 78%
    22:00 +12°C° 0 mm 1 mps 751 mmHg 77%
    23:00 +12°C° 0 mm 1 mps 751 mmHg 77%

    18 December, Wednesday

    Time Temperature Precipitation Wind Pressure Humidity
    00:00 +12°C° 0 mm 1 mps 751 mmHg 76%
    01:00 +12°C° 0 mm 1 mps 751 mmHg 76%
    02:00 +12°C° 0 mm 1 mps 751 mmHg 76%
    03:00 +11°C° 0 mm 1 mps 751 mmHg 76%
    04:00 +11°C° 0 mm 1 mps 751 mmHg 76%
    05:00 +11°C° 0 mm 1 mps 751 mmHg 75%
    06:00 +11°C° 0 mm 1 mps 751 mmHg 74%
    07:00 +10°C° 0 mm 2 mps 751 mmHg 74%
    08:00 +13°C° 0 mm 1 mps 751 mmHg 70%
    09:00 +14°C° 0 mm 1 mps 751 mmHg 66%
    10:00 +16°C° 0 mm 1 mps 751 mmHg 63%
    11:00 +18°C° 0 mm 1 mps 751 mmHg 62%
    12:00 +18°C° 0 mm 1 mps 751 mmHg 62%
    13:00 +19°C° 0 mm 1 mps 750 mmHg 62%
    14:00 +18°C° 0 mm 1 mps 750 mmHg 67%
    15:00 +16°C° 0 mm 1 mps 750 mmHg 73%
    16:00 +15°C° 0 mm 1 mps 750 mmHg 79%
    17:00 +14°C° 0 mm 1 mps 750 mmHg 80%
    18:00 +13°C° 0 mm 1 mps 750 mmHg 81%
    19:00 +13°C° 0 mm 1 mps 750 mmHg 82%
    20:00 +13°C° 0 mm 1 mps 751 mmHg 81%
    21:00 +12°C° 0 mm 1 mps 751 mmHg 81%
    22:00 +12°C° 0 mm 1 mps 751 mmHg 80%
    23:00 +12°C° 0 mm 1 mps 751 mmHg 79%
    Show more